This is the latest recevied weather packets stored in our database for station/object IU2EVW-3. If no packets are shown the sender has not sent any weather packets the latest 10 day(s).
| Time | Temp. | Humidity | Pressure | Rain* | Wind** | Luminosity | Snow |
|---|---|---|---|---|---|---|---|
| 1777651271 | 18.89° C | 32% | 1025.5 hPa | - | - | - | - |
| 1777650070 | 18.89° C | 31% | 1025.7 hPa | - | - | - | - |
| 1777648869 | 18.89° C | 31% | 1025.9 hPa | - | - | - | - |
| 1777647668 | 18.89° C | 31% | 1026.1 hPa | - | - | - | - |
| 1777646467 | 18.89° C | 31% | 1026.2 hPa | - | - | - | - |
| 1777645265 | 18.33° C | 31% | 1026.4 hPa | - | - | - | - |
| 1777644064 | 18.89° C | 31% | 1026.7 hPa | - | - | - | - |
| 1777642863 | 18.33° C | 31% | 1027 hPa | - | - | - | - |
| 1777641662 | 18.33° C | 31% | 1027.2 hPa | - | - | - | - |
| 1777640461 | 18.33° C | 31% | 1027.3 hPa | - | - | - | - |
| 1777639260 | 17.78° C | 32% | 1027.7 hPa | - | - | - | - |
| 1777638058 | 17.22° C | 32% | 1028 hPa | - | - | - | - |
| 1777636857 | 17.22° C | 32% | 1028 hPa | - | - | - | - |
| 1777635656 | 16.67° C | 32% | 1028.3 hPa | - | - | - | - |
| 1777634455 | 16.11° C | 31% | 1028.5 hPa | - | - | - | - |
| 1777633254 | 16.11° C | 30% | 1028.7 hPa | - | - | - | - |
| 1777632053 | 16.11° C | 30% | 1028.9 hPa | - | - | - | - |
| 1777630851 | 15.56° C | 33% | 1029 hPa | - | - | - | - |
| 1777629650 | 15.56° C | 33% | 1029.1 hPa | - | - | - | - |
| 1777628449 | 15° C | 34% | 1029.2 hPa | - | - | - | - |
| 1777627248 | 14.44° C | 33% | 1029.3 hPa | - | - | - | - |
| 1777626046 | 15° C | 34% | 1029.4 hPa | - | - | - | - |
| 1777624845 | 14.44° C | 35% | 1029.4 hPa | - | - | - | - |
| 1777623644 | 13.89° C | 34% | 1029.3 hPa | - | - | - | - |
| 1777622443 | 13.33° C | 34% | 1029.2 hPa | - | - | - | - |
* Rain since midnight (hover to see other rain measurements)
** Current wind speed in m/s (hover to see current wind gust speed)